Clinton-Sherman, OK

5:24 AM CDT on May 20, 2018 (GMT -0500)
Clinton-Sherman

Weather History for KCSM - January, 2007

Change the Weather History Date:

Monday, January 1, 2007

  Actual Average Record
Temperature  
Mean Temperature 37 °F -  
Max Temperature 46 °F 47 °F 72 °F (2006)
Min Temperature 28 °F 28 °F 1 °F (2018)
Degree Days  
Heating Degree Days 28    
Moisture  
Dew Point 20 °F    
Average Humidity 53    
Maximum Humidity 72    
Minimum Humidity 29    
Precipitation  
Precipitation 0.00 in - - ()
Sea Level Pressure  
Sea Level Pressure 30.37 in    
Wind  
Wind Speed 11 mph (NNE)    
Max Wind Speed 17 mph    
Max Gust Speed -    
Visibility 10 miles    
Events      
Averages and records for this station are not official NWS values.
T = Trace of Precipitation, MM = Missing Value Source: NWS Daily Summary

Daily Weather History Graph

Daily Weather History Graph

Search for Another Location

Airport or City:

Astronomy

Jan. 01, 2007 Rise Set
Actual Time 7:45 AM CST 5:35 PM CST
Civil Twilight 7:17 AM CST 6:03 PM CST
Nautical Twilight 6:45 AM CST 6:35 PM CST
Astronomical Twilight 6:14 AM CST 7:05 PM CST
Moon 3:38 PM CST (1/1) 6:09 AM CST (1/1)
Length of Visible Light 10h 45m
Length of Day
9h 49m
Waxing Gibbous, 96% of the Moon is Illuminated
Jan 1
Waxing Gibbous
Jan 3
Full
Jan 11
Last Quarter
Jan 18
New
Jan 25
First Quarter

Hourly Weather History & Observations

Time (CST) Temp. Windchill Dew Point Humidity Pressure Visibility Wind Dir Wind Speed Gust Speed Precip Events Conditions
12:53 AM 33.1 °F 22.2 °F 23.0 °F 66% 30.30 in 10.0 mi NW 17.3 mph - N/A   Clear
1:53 AM 32.0 °F 23.0 °F 23.0 °F 69% 30.30 in 10.0 mi NNW 11.5 mph - N/A   Clear
2:53 AM 30.9 °F 21.2 °F 23.0 °F 72% 30.32 in 10.0 mi NW 12.7 mph - N/A   Clear
3:53 AM 30.9 °F 19.8 °F 21.9 °F 69% 30.33 in 10.0 mi NNW 16.1 mph - N/A   Clear
4:53 AM 30.9 °F 20.7 °F 21.0 °F 67% 30.34 in 10.0 mi NNW 13.8 mph - N/A   Clear
5:53 AM 30.9 °F 20.2 °F 19.9 °F 64% 30.37 in 10.0 mi NW 15.0 mph - N/A   Clear
6:53 AM 30.0 °F 20.0 °F 19.0 °F 64% 30.36 in 10.0 mi North 12.7 mph - N/A   Clear
7:53 AM 28.9 °F 20.4 °F 19.0 °F 67% 30.39 in 10.0 mi North 9.2 mph - N/A   Clear
8:53 AM 30.9 °F 22.8 °F 19.0 °F 61% 30.40 in 10.0 mi North 9.2 mph - N/A   Clear
9:53 AM 35.1 °F 26.4 °F 19.9 °F 54% 30.39 in 10.0 mi NNE 12.7 mph - N/A   Clear
10:53 AM 37.9 °F 32.1 °F 19.9 °F 48% 30.41 in 10.0 mi North 8.1 mph - N/A   Clear
11:53 AM 42.1 °F 40.2 °F 19.9 °F 41% 30.40 in 10.0 mi North 3.5 mph - N/A   Clear
12:53 PM 45.0 °F 41.8 °F 15.1 °F 30% 30.37 in 10.0 mi East 5.8 mph - N/A   Clear
1:53 PM 46.0 °F - 17.1 °F 31% 30.35 in 10.0 mi Calm Calm - N/A   Clear
2:53 PM 46.9 °F - 16.0 °F 29% 30.35 in 10.0 mi East 6.9 mph - N/A   Clear
3:53 PM 46.9 °F - 16.0 °F 29% 30.35 in 10.0 mi East 6.9 mph - N/A   Clear
4:53 PM 46.0 °F 43.9 °F 19.0 °F 34% 30.37 in 10.0 mi East 4.6 mph - N/A   Clear
5:53 PM 41.0 °F 38.0 °F 19.0 °F 41% 30.38 in 10.0 mi East 4.6 mph - N/A   Clear
6:53 PM 37.9 °F - 21.0 °F 51% 30.38 in 10.0 mi Calm Calm - N/A   Clear
7:53 PM 36.0 °F 33.3 °F 21.9 °F 57% 30.39 in 10.0 mi ESE 3.5 mph - N/A   Clear
8:53 PM 35.1 °F 32.2 °F 21.9 °F 59% 30.39 in 10.0 mi SE 3.5 mph - N/A   Clear
9:53 PM 34.0 °F 31.0 °F 21.0 °F 59% 30.38 in 10.0 mi SSE 3.5 mph - N/A   Clear
11:53 PM 34.0 °F 31.0 °F 18.0 °F 52% 30.38 in 10.0 mi SSE 3.5 mph - N/A   Clear